Duluth, MN

10:49 AM CDT on August 19, 2017 (GMT -0500)
Duluth International

Weather History for KDLH - September, 2013

Change the Weather History Date:

Thursday, September 12, 2013

  Actual Average Record
Temperature  
Mean Temperature 55 °F 57 °F  
Max Temperature 67 °F 67 °F 87 °F (1948)
Min Temperature 43 °F 48 °F 29 °F (2007)
Degree Days  
Heating Degree Days 10 8  
Month to date heating degree days 34 79  
Since 1 July heating degree days 108 228  
Cooling Degree Days 0 1  
Month to date cooling degree days 22 12  
Year to date cooling degree days 373 202  
Growing Degree Days 6 (Base 50)    
Moisture  
Dew Point 47 °F    
Average Humidity 68    
Maximum Humidity 93    
Minimum Humidity 42    
Precipitation  
Precipitation 0.00 in 0.14 in 2.04 in (1903)
Month to date precipitation 0.34 1.66  
Year to date precipitation 21.93 22.36  
Snow  
Snow 0.00 in 0.00 in 0.00 in (2002)
Month to date snowfall 0.0 0.0  
Since 1 July snowfall 0.0 0.0  
Since 1 September snowfall 0.0 0.0  
Snow Depth 0.00 in    
Sea Level Pressure  
Sea Level Pressure 30.17 in    
Wind  
Wind Speed 9 mph (NNW)    
Max Wind Speed 20 mph    
Max Gust Speed 28 mph    
Visibility 10 miles    
Events      
T = Trace of Precipitation, MM = Missing Value Source: NWS Daily Summary

Daily Weather History Graph

Daily Weather History Graph

Search for Another Location

Airport or City:

Trip Planner

Search our weather history database for the weather conditions in past years. The results will help you decide how hot, cold, wet, or windy it might be!

Date:

Astronomy

Sep. 12, 2013 Rise Set
Actual Time 6:42 AM CDT 7:25 PM CDT
Civil Twilight 6:12 AM CDT 7:56 PM CDT
Nautical Twilight 5:35 AM CDT 8:32 PM CDT
Astronomical Twilight 4:57 AM CDT 9:10 PM CDT
Moon 2:35 PM CDT (9/12) 11:57 PM CDT (9/12)
Length of Visible Light 13h 44m
Length of Day
12h 43m
Waxing Crescent, 50% of the Moon is Illuminated
Sep 12
Waxing Crescent
Sep 12
First Quarter
Sep 19
Full
Sep 26
Last Quarter
Oct 4
New

Hourly Weather History & Observations

Time (CDT) Temp. Dew Point Humidity Pressure Visibility Wind Dir Wind Speed Gust Speed Precip Events Conditions
12:55 AM 54.0 °F 50.0 °F 86% 30.08 in 10.0 mi NW 11.5 mph - N/A   Clear
1:13 AM 53.6 °F 50.0 °F 88% 30.08 in 10.0 mi NW 11.5 mph - N/A   Scattered Clouds
1:26 AM 53.6 °F 51.8 °F 94% 30.08 in 10.0 mi NW 10.4 mph - N/A   Mostly Cloudy
1:55 AM 54.0 °F 50.0 °F 86% 30.08 in 10.0 mi NNW 13.8 mph 18.4 mph N/A   Mostly Cloudy
2:03 AM 53.6 °F 50.0 °F 88% 30.08 in 10.0 mi NNW 12.7 mph 19.6 mph N/A   Mostly Cloudy
2:55 AM 54.0 °F 50.0 °F 86% 30.09 in 10.0 mi NNW 6.9 mph - N/A   Mostly Cloudy
3:32 AM 53.6 °F 50.0 °F 88% 30.09 in 10.0 mi NW 5.8 mph - N/A   Scattered Clouds
3:55 AM 53.1 °F 50.0 °F 89% 30.09 in 10.0 mi NW 5.8 mph - N/A   Mostly Cloudy
4:55 AM 55.0 °F 51.1 °F 86% 30.10 in 10.0 mi NNW 8.1 mph - N/A   Mostly Cloudy
5:55 AM 54.0 °F 51.1 °F 90% 30.13 in 10.0 mi NNW 9.2 mph - N/A   Overcast
6:55 AM 55.0 °F 51.1 °F 86% 30.14 in 10.0 mi NNW 6.9 mph - N/A   Overcast
7:17 AM 53.6 °F 50.0 °F 88% 30.14 in 10.0 mi NNW 4.6 mph - N/A   Scattered Clouds
7:52 AM 55.4 °F 50.0 °F 82% 30.16 in 10.0 mi NNW 6.9 mph - N/A   Mostly Cloudy
7:55 AM 55.0 °F 50.0 °F 83% 30.17 in 10.0 mi NNW 8.1 mph - N/A   Mostly Cloudy
8:09 AM 55.4 °F 50.0 °F 82% 30.16 in 10.0 mi NNW 11.5 mph 17.3 mph N/A   Mostly Cloudy
8:55 AM 57.0 °F 50.0 °F 77% 30.18 in 10.0 mi NNW 10.4 mph 16.1 mph N/A   Mostly Cloudy
9:55 AM 59.0 °F 46.9 °F 64% 30.19 in 10.0 mi NNW 10.4 mph 23.0 mph N/A   Scattered Clouds
10:01 AM 59.0 °F 46.4 °F 63% 30.17 in 10.0 mi NNW 13.8 mph 23.0 mph N/A   Mostly Cloudy
10:27 AM 60.8 °F 46.4 °F 59% 30.18 in 10.0 mi NNW 12.7 mph 19.6 mph N/A   Scattered Clouds
10:55 AM 61.0 °F 45.0 °F 56% 30.20 in 10.0 mi North 13.8 mph 23.0 mph N/A   Scattered Clouds
11:13 AM 60.8 °F 44.6 °F 55% 30.18 in 10.0 mi NNW 12.7 mph - N/A   Mostly Cloudy
11:20 AM 62.6 °F 44.6 °F 52% 30.18 in 10.0 mi NNW 15.0 mph 23.0 mph N/A   Scattered Clouds
11:55 AM 63.0 °F 45.0 °F 52% 30.20 in 10.0 mi NNW 16.1 mph 23.0 mph N/A   Scattered Clouds
12:55 PM 63.0 °F 46.0 °F 54% 30.21 in 10.0 mi NNW 12.7 mph 20.7 mph N/A   Mostly Cloudy
1:55 PM 64.9 °F 44.1 °F 47% 30.20 in 10.0 mi NNW 15.0 mph 25.3 mph N/A   Scattered Clouds
2:55 PM 66.0 °F 44.1 °F 45% 30.19 in 10.0 mi NW 15.0 mph 24.2 mph N/A   Scattered Clouds
3:55 PM 66.9 °F 42.1 °F 40% 30.19 in 10.0 mi North 13.8 mph 26.5 mph N/A   Scattered Clouds
4:55 PM 64.9 °F 42.1 °F 43% 30.19 in 10.0 mi NNW 12.7 mph 20.7 mph N/A   Partly Cloudy
5:55 PM 63.0 °F 42.1 °F 46% 30.21 in 10.0 mi NNW 10.4 mph - N/A   Partly Cloudy
6:55 PM 61.0 °F 41.0 °F 48% 30.22 in 10.0 mi NNW 5.8 mph - N/A   Clear
7:55 PM 55.9 °F 44.1 °F 64% 30.24 in 10.0 mi NE 3.5 mph - N/A   Clear
8:55 PM 54.0 °F 42.1 °F 64% 30.25 in 10.0 mi North 3.5 mph - N/A   Clear
9:55 PM 50.0 °F 42.1 °F 74% 30.26 in 10.0 mi NE 3.5 mph - N/A   Clear
10:55 PM 46.9 °F 39.9 °F 77% 30.27 in 10.0 mi Calm Calm - N/A   Clear
11:55 PM 46.9 °F 41.0 °F 80% 30.27 in 10.0 mi Calm Calm - N/A   Clear